Regional Weather Roundup
Issued by NWS

Home | Current Version | Previous Version | Graphics & Text | Print | Product List | Glossary On
Versions: 1 2 3 4 5 6 7 8 9 10 11 12 13 14 15 16 17 18 19 20 21 22 23 24 25 26 27 28 29 30 31 32 33 34 35 36 37 38 39 40 41 42 43 44 45 46 47 48 49 50
000
ASUS43 KBIS 221810
RWRND

NORTH DAKOTA REGIONAL WEATHER ROUNDUP
NATIONAL WEATHER SERVICE BISMARCK ND
1200 PM CST WED FEB 22 2017

NOTE: "FAIR" INDICATES FEW OR NO CLOUDS BELOW 12,000 FEET WITH NO
SIGNIFICANT WEATHER AND/OR OBSTRUCTIONS TO VISIBILITY.


NDZ001>003-009>011-017-221900-
NORTHWEST NORTH DAKOTA

CITY           SKY/WX    TMP DP  RH WIND       PRES   REMARKS
WILLISTON      CLOUDY    31  26  82 N8        29.91R
6HR MIN TEMP:  30; 6HR MAX TEMP:  32; 6HR PCP: TRACE;

MINOT          CLOUDY    33  28  81 N16       29.85R
MINOT AFB      CLOUDY    32  27  84 N12       29.85R
$$

NDZ018>021-031>035-040>046-221900-
SOUTHWEST NORTH DAKOTA

CITY           SKY/WX    TMP DP  RH WIND       PRES   REMARKS
BISMARCK       LGT SNOW  35  32  88 N13       29.79R FOG
6HR MIN TEMP:  34; 6HR MAX TEMP:  35; 6HR PCP:  0.27;

DICKINSON      LGT SNOW  30  27  88 N13       29.81R FOG     WCI  20
GARRISON         N/A     31  29  92 N7        29.83R
6HR MIN TEMP:  31; 6HR MAX TEMP:  32; 6HR PCP:  0.01;

HETTINGER ARPT CLOUDY    33  30  88 N16G23    29.80R
$$

NDZ004>008-012>016-024-026-027-054-221900-
NORTHEAST NORTH DAKOTA

CITY           SKY/WX    TMP DP  RH WIND       PRES   REMARKS
GRAND FORKS    CLOUDY    35  28  75 N21       29.77R
GRND FRKS AFB  CLOUDY    34  32  93 N16G25    29.78R
DEVILS LAKE    CLOUDY    31  27  85 NE21      29.81S WCI  18
$$

NDZ022-023-025-028>030-036>039-047>053-221900-
SOUTHEAST NORTH DAKOTA

CITY           SKY/WX    TMP DP  RH WIND       PRES   REMARKS
FARGO          LGT RAIN  36  34  92 N15       29.69R FOG
6HR MIN TEMP:  33; 6HR MAX TEMP:  36; 6HR PCP:  0.03;

JAMESTOWN      LGT SNOW  33  32  96 N13       29.74R VSB 3/4
$$




USA.gov is the U.S. government's official web portal to all federal, state and local government web resources and services.